GW4137 Weather Reports


Display with metric or nautical units.
time (UTC)temp
F
wind
direction
speed
MPH
gust
MPH
rain 1hr
in
rain 24hr
in
rain mn
in
humidity
%
barometer
mb
20260509023056 65 5 2.0 6.0 0.00 0.00 0.00 25 1008.6
20260509021553 67 5 4.0 10.0 0.00 0.00 0.00 23 1008.4
20260509020105 68 360 11.0 16.0 0.00 0.00 0.00 22 1008.1
20260509014554 69 352 12.0 18.0 0.00 0.00 0.00 21 1008.0
20260509013052 70 344 11.0 18.0 0.00 0.00 0.00 20 1008.1
20260509011601 70 352 12.0 18.0 0.00 0.00 0.00 20 1008.1
20260509010059 70 333 15.0 19.0 0.00 0.00 0.00 20 1008.0
20260509004553 71 340 15.0 21.0 0.00 0.00 0.00 19 1008.1
20260509003056 71 340 14.0 23.0 0.00 0.00 0.00 20 1008.1
20260509001550 72 330 16.0 24.0 0.00 0.00 0.00 18 1008.0
20260509000052 72 342 18.0 26.0 0.00 0.00 0.00 18 1008.0
20260508234604 72 304 13.0 27.0 0.00 0.00 0.00 18 1008.0
20260508233105 72 319 20.0 31.0 0.00 0.00 0.00 17 1008.0
20260508231550 73 327 22.0 31.0 0.00 0.00 0.00 18 1008.0
20260508230057 73 319 15.0 25.0 0.00 0.00 0.00 18 1007.8
20260508224556 74 331 18.0 29.0 0.00 0.00 0.00 18 1008.0
20260508223055 74 346 20.0 29.0 0.00 0.00 0.00 19 1008.0
20260508221600 73 323 17.0 30.0 0.00 0.00 0.00 20 1007.9
20260508220055 74 326 16.0 26.0 0.00 0.00 0.00 19 1007.9
20260508214549 74 315 16.0 27.0 0.00 0.00 0.00 18 1008.1
20260508213054 74 292 13.0 30.0 0.00 0.00 0.00 18 1008.1
20260508211550 75 344 11.0 29.0 0.00 0.00 0.00 20 1008.1
20260508210056 74 292 20.0 30.0 0.00 0.00 0.00 19 1008.1
20260508204554 74 302 14.0 30.0 0.00 0.00 0.00 18 1008.1
20260508203052 74 304 14.0 27.0 0.00 0.00 0.00 18 1008.4
20260508201554 74 296 14.0 30.0 0.00 0.00 0.00 20 1008.2
20260508200053 73 248 14.0 27.0 0.00 0.00 0.00 21 1008.3
20260508194605 74 298 15.0 24.0 0.00 0.00 0.00 22 1008.5
20260508193108 73 331 14.0 24.0 0.00 0.00 0.00 21 1008.7
20260508191601 73 288 10.0 21.0 0.00 0.00 0.00 22 1008.7
20260508190108 72 284 14.0 21.0 0.00 0.00 0.00 23 1009.1
20260508184552 72 282 13.0 26.0 0.00 0.00 0.00 23 1009.3
20260508183057 71 246 9.0 17.0 0.00 0.00 0.00 24 1009.7
20260508181602 71 259 9.0 16.0 0.00 0.00 0.00 27 1010.0
20260508180057 69 244 7.0 15.0 0.00 0.00 0.00 32 1010.0
20260508174555 68 262 7.0 14.0 0.00 0.00 0.00 34 1010.3
20260508173055 68 264 9.0 14.0 0.00 0.00 0.00 35 1010.3
20260508171556 67 282 9.0 13.0 0.00 0.00 0.00 36 1010.5
20260508170059 66 287 4.0 13.0 0.00 0.00 0.00 41 1010.7
20260508164604 64 241 7.0 14.0 0.00 0.00 0.00 47 1010.8
20260508163109 63 270 6.0 12.0 0.00 0.00 0.00 49 1011.0
20260508161558 62 250 7.0 13.0 0.00 0.00 0.00 50 1011.2
20260508160055 61 259 7.0 11.0 0.00 0.00 0.00 52 1011.4
20260508154558 59 264 6.0 12.0 0.00 0.00 0.00 55 1011.5
20260508153106 58 254 6.0 9.0 0.00 0.00 0.00 57 1011.8
20260508151556 57 250 3.0 7.0 0.00 0.00 0.00 61 1011.8
20260508150053 54 0 1.0 6.0 0.00 0.00 0.00 65 1011.8
20260508144551 53 209 2.0 6.0 0.00 0.00 0.00 68 1011.8
20260508143111 51 224 3.0 6.0 0.00 0.00 0.00 71 1012.0
20260508141558 50 225 4.0 8.0 0.00 0.00 0.00 72 1012.1
20260508140107 49 220 3.0 5.0 0.00 0.00 0.00 75 1012.1
20260508134553 47 220 2.0 8.0 0.00 0.00 0.00 78 1012.2
20260508133057 44 0 0.0 3.0 0.00 0.00 0.00 80 1012.1
20260508131552 43 0 0.0 3.0 0.00 0.00 0.00 83 1012.1
20260508130052 42 0 0.0 4.0 0.00 0.00 0.00 83 1012.1
20260508124552 41 238 3.0 7.0 0.00 0.00 0.00 84 1012.1
20260508123052 40 0 0.0 0.0 0.00 0.00 0.00 82 1011.9
20260508121550 39 0 0.0 0.0 0.00 0.00 0.00 84 1011.8
20260508120100 39 0 0.0 0.0 0.00 0.00 0.00 84 1011.9
20260508114601 38 0 0.0 0.0 0.00 0.00 0.00 81 1012.0
20260508113101 39 0 0.0 0.0 0.00 0.00 0.00 80 1012.1
20260508111553 40 0 0.0 0.0 0.00 0.00 0.00 80 1012.1
20260508110104 41 0 0.0 0.0 0.00 0.00 0.00 78 1012.1
20260508104552 42 0 0.0 0.0 0.00 0.00 0.00 77 1012.1
20260508103057 44 0 0.0 4.0 0.00 0.00 0.00 77 1012.0
20260508101556 45 345 4.0 12.0 0.00 0.00 0.00 75 1012.1
20260508100126 45 360 8.0 12.0 0.00 0.00 0.00 76 1012.1
20260508094557 46 329 4.0 10.0 0.00 0.00 0.00 73 1012.2
20260508093057 47 325 5.0 10.0 0.00 0.00 0.00 73 1012.0
20260508091608 47 316 4.0 9.0 0.00 0.00 0.00 72 1012.1
20260508090054 48 308 4.0 10.0 0.00 0.00 0.00 70 1012.1
20260508084552 48 313 7.0 12.0 0.00 0.00 0.00 70 1012.2
20260508083055 49 300 6.0 14.0 0.00 0.00 0.00 69 1012.0
20260508081610 49 306 6.0 12.0 0.00 0.00 0.00 68 1012.0
20260508080055 49 309 6.0 14.0 0.00 0.00 0.00 67 1012.0
20260508074554 50 307 5.0 12.0 0.00 0.00 0.00 65 1012.1
20260508073053 50 313 6.0 12.0 0.00 0.00 0.00 62 1012.1
20260508071554 51 309 6.0 12.0 0.00 0.00 0.00 60 1012.1
20260508070054 52 314 7.0 12.0 0.00 0.00 0.00 57 1012.1
20260508064555 53 325 7.0 14.0 0.00 0.00 0.00 55 1011.9
20260508063057 53 328 9.0 14.0 0.00 0.00 0.00 54 1012.0
20260508061549 51 316 4.0 10.0 0.00 0.00 0.00 57 1012.0
20260508054636 51 294 5.0 10.0 0.00 0.00 0.00 60 1011.9
20260508053056 51 286 4.0 8.0 0.00 0.00 0.00 59 1011.6
20260508051554 52 285 6.0 9.0 0.00 0.00 0.00 58 1011.6
20260508050051 53 288 5.0 9.0 0.00 0.00 0.00 56 1011.8
20260508044553 52 285 5.0 8.0 0.00 0.00 0.00 59 1011.8
20260508043056 53 0 0.0 7.0 0.00 0.00 0.00 61 1011.8
20260508041552 54 0 2.0 6.0 0.00 0.00 0.00 59 1011.8
20260508040047 54 278 1.0 8.0 0.00 0.00 0.00 59 1011.9
20260508034552 54 0 0.0 6.0 0.00 0.00 0.00 59 1012.0
20260508033055 56 272 4.0 9.0 0.00 0.00 0.00 57 1012.0
20260508031559 56 279 5.0 9.0 0.00 0.00 0.00 55 1011.9
20260508030108 57 266 5.0 9.0 0.00 0.00 0.00 53 1011.8
20260508024604 58 266 6.0 13.0 0.00 0.00 0.00 52 1011.6